Regional Weather Roundup
Issued by NWS Goodland, KS

Home | Current Version | Previous Version | Graphics & Text | Print | Product List | Glossary On
Versions: 1 2 3 4 5 6 7 8 9 10 11 12 13 14 15 16 17 18 19 20 21 22 23 24 25 26 27 28 29 30 31 32 33 34 35 36 37 38 39 40 41 42 43 44 45 46 47 48 49 50
000
ASUS43 KGLD 282008
RWRGLD

GOODLAND FORECAST AREA HOURLY WEATHER ROUNDUP
NATIONAL WEATHER SERVICE GOODLAND KS
200 PM MDT SUN AUG 28 2016

...OFFICIAL OBSERVATIONS...

CITY           SKY/WX    TMP DP  RH WIND       PRES   REMARKS
GOODLAND KS    CLOUDY    82  57  42 SE13G23   30.12S
HILL CITY KS   PTSUNNY   81  64  56 VRB3      30.09F
IMPERIAL NEB   SUNNY     86  52  30 S18G24    30.09S
MCCOOK NEB     CLOUDY    77  60  55 SE8       30.10S
AKRON CO       MOSUNNY   84  45  25 SE7       30.13S
BURLINGTON CO  SUNNY     84  51  31 SE13G23   30.13F
LIMON CO       MOSUNNY   81  41  24 NE13      30.16S
$$

...UNOFFICIAL OBSERVATIONS...

CITY           SKY/WX    TMP DP  RH WIND       PRES   REMARKS
COLBY KS       SUNNY     82  61  47 S14       30.12F
LENORA KS        N/A     79  32  18 MISG        N/A
NORTON KS      SUNNY     79  57  47 E8        30.09F
SHARON SPRINGS   N/A     83  65  53 CALM        N/A
TRENTON NEB      N/A     77  32  19 MISG        N/A
KIT CARSON CO    N/A     85  53  33 MISG        N/A
YUMA CO          N/A     86  57  37 E15         N/A
$$



USA.gov is the U.S. government's official web portal to all federal, state and local government web resources and services.